Theta_e
287 286 285 284 283 282 281 281 280 280 279 278 277 275 274 273 273 273 273 272 272 272 271 271 270 270 269 269 268 268 267 267 267 267 267 267 266 266 266 266 266 265
287 286 285 284 283 282 281 280 280 279 278 277 276 275 274 273 273 272 272 272 272 271 271 270 270 269 269 268 268 267 267 267 267 267 267 266 266 266 265 265 265 265
287 286 285 283 282 281 281 280 279 279 278 277 275 274 273 273 272 272 272 271 271 271 270 270 269 269 268 268 267 267 267 267 267 267 266 266 266 265 265 265 265 265
287 285 284 283 282 281 280 279 279 278 277 276 275 273 273 272 272 272 271 271 271 270 270 269 269 268 268 267 267 267 267 267 266 266 266 266 266 265 265 265 265 265
286 285 284 282 281 281 280 279 278 277 277 276 274 273 272 272 271 271 271 271 270 270 269 269 268 268 268 267 267 267 266 266 266 266 265 265 265 265 265 265 265 265
285 284 283 282 281 280 279 278 277 277 276 275 273 272 272 271 271 271 271 270 270 269 269 269 268 268 267 267 267 266 266 266 266 265 265 265 265 265 265 265 265 264
285 284 283 282 281 280 279 278 277 277 276 274 273 272 272 271 271 271 270 270 270 269 269 269 268 268 267 267 266 266 266 266 265 265 265 265 265 264 264 264 264 264
284 283 282 281 280 279 278 277 277 276 275 273 272 272 271 271 271 271 270 270 270 269 269 268 268 267 267 266 266 266 266 265 265 265 265 265 264 264 264 264 264 264
284 283 282 281 280 279 278 277 277 276 274 273 272 272 271 271 271 270 270 270 270 269 269 268 268 267 267 266 266 265 265 265 265 265 264 264 264 264 264 264 264 264
283 282 281 280 279 278 278 277 276 274 273 272 272 271 271 271 270 270 270 270 270 269 269 268 267 267 266 266 265 265 265 265 264 264 264 264 264 264 264 264 263 263
282 282 280 280 279 278 277 276 275 273 272 272 271 271 271 270 270 270 270 270 269 269 268 268 267 267 266 266 265 265 264 264 264 264 264 264 263 263 263 263 263 263
282 281 280 279 278 277 276 275 273 272 272 271 271 271 270 270 270 270 270 269 269 269 268 268 267 267 266 266 265 265 264 264 264 264 264 263 263 263 264 264 263 263
281 280 279 278 277 277 275 273 272 272 271 271 270 270 270 270 270 270 269 269 269 268 268 267 267 267 266 266 265 265 264 264 264 263 263 263 264 264 264 264 264 263
281 279 278 278 277 275 274 273 272 271 271 271 270 270 270 270 270 269 269 269 268 268 268 267 267 266 266 266 265 265 264 264 264 264 264 264 264 264 264 264 264 264
280 279 278 277 276 274 273 272 272 271 271 270 270 270 270 270 269 269 269 268 268 268 267 267 266 266 266 265 265 264 264 264 264 264 264 264 264 265 265 264 264 264
279 278 277 276 275 273 272 272 271 271 271 270 270 270 270 269 269 269 268 268 268 268 267 267 266 266 266 265 265 264 264 264 264 264 265 265 265 265 265 264 264 264
278 277 276 275 274 272 272 271 271 271 271 270 270 270 269 269 269 268 268 268 268 267 267 267 266 266 266 265 265 265 265 265 264 264 264 264 264 264 264 263 263 263
278 277 275 274 273 272 271 271 271 271 270 270 270 269 269 268 268 268 268 268 267 267 267 267 266 266 266 265 265 265 266 266 265 265 264 264 264 263 263 263 263 263
277 276 274 273 272 272 271 271 271 271 270 270 269 269 268 268 268 268 268 268 267 267 267 266 266 266 266 265 265 266 266 266 266 265 265 264 264 263 263 263 262 262
276 274 273 273 272 271 271 271 271 270 270 270 269 268 268 268 267 267 267 267 267 267 267 266 266 266 266 265 265 265 265 266 265 265 265 264 264 263 263 263 262 262
275 274 273 272 272 271 271 271 271 270 270 269 268 268 267 267 267 267 267 267 267 267 267 267 267 266 266 265 265 265 265 265 265 264 264 263 263 263 263 263 263 263
274 273 272 272 271 271 271 271 270 270 269 268 268 267 267 267 267 267 267 267 267 267 267 267 267 266 265 265 265 265 265 264 264 264 263 263 263 263 263 263 263 263
273 272 272 272 271 271 271 270 270 269 268 268 267 267 267 267 267 267 267 267 267 267 267 267 267 266 265 265 265 265 264 263 263 263 262 262 262 262 262 262 262 263
272 272 272 271 271 271 270 269 269 268 268 267 267 267 267 267 267 267 267 267 267 267 266 266 267 266 265 265 265 264 264 263 262 262 262 262 262 262 262 262 262 262
272 272 272 271 271 270 269 269 268 268 267 267 267 267 267 267 267 267 267 267 267 267 266 266 266 266 265 265 265 264 264 263 262 262 262 261 261 261 261 261 261 262
272 272 271 271 270 269 269 268 268 268 267 267 267 267 267 267 267 267 267 267 266 266 266 266 266 266 265 265 264 264 264 263 262 261 261 261 261 261 261 261 261 262
Wind_Speed
37 37 36 35 33 33 32 32 33 33 33 33 33 34 32 31 31 31 31 31 30 31 30 30 29 29 28 28 27 27 28 28 29 29 29 28 27 26 25 25 24 25
39 38 37 36 34 33 33 33 33 33 33 33 34 34 32 31 31 31 31 31 30 30 30 29 29 29 28 28 27 28 28 29 29 28 28 28 27 26 25 25 25 25
40 39 38 36 34 33 33 33 33 33 33 34 34 34 32 31 31 31 31 31 31 30 30 30 29 28 28 28 28 29 29 30 29 29 28 28 27 26 26 26 26 26
40 40 38 36 34 34 34 34 34 34 33 34 35 33 32 31 31 31 31 31 31 31 30 30 29 29 28 28 28 29 30 30 30 29 29 29 27 27 27 27 28 28
39 39 38 36 35 35 35 35 34 33 34 35 35 32 31 31 31 31 31 31 31 31 31 31 30 29 29 29 29 30 31 31 31 30 29 29 28 28 29 29 29 29
39 39 38 36 35 35 35 35 34 34 35 35 34 31 30 30 31 31 31 31 31 32 32 31 31 30 30 29 30 31 32 32 32 31 30 30 29 30 30 30 30 30
39 38 37 36 35 35 35 35 34 35 36 35 33 31 30 30 31 32 32 32 32 33 33 32 32 31 30 30 31 32 33 32 32 31 30 30 30 31 31 31 31 31
38 37 36 36 36 35 35 35 35 36 36 35 33 31 30 31 32 32 32 33 33 34 34 33 33 32 31 31 32 33 33 33 32 31 31 31 31 32 33 32 33 33
37 37 36 36 36 36 36 36 36 37 36 34 32 31 31 31 32 32 33 34 34 35 35 34 33 32 32 32 33 34 34 33 32 32 31 31 32 33 34 34 34 34
37 37 37 37 36 35 36 36 36 36 35 33 31 31 31 32 32 33 34 35 35 36 36 35 34 33 33 33 34 34 34 33 32 32 32 32 33 34 35 35 35 35
37 37 37 36 35 35 35 36 36 35 33 31 31 31 31 32 33 33 34 35 36 36 36 35 34 34 34 35 35 34 34 34 33 33 33 33 34 35 36 36 35 35
37 37 36 35 34 35 35 35 35 34 32 31 31 31 32 33 34 34 34 35 36 35 35 35 35 35 35 35 35 35 35 35 34 34 35 35 36 37 36 35 34 34
36 35 34 33 34 34 35 35 34 32 31 31 31 32 33 34 34 34 35 35 35 35 35 35 35 35 36 36 36 36 36 36 35 35 36 37 37 36 34 33 33 32
34 33 33 33 33 34 34 34 33 32 31 31 32 33 34 35 35 35 35 35 35 36 36 36 36 36 36 36 36 36 36 36 37 37 37 37 35 34 32 31 31 31
33 32 32 32 33 34 33 33 32 31 31 32 33 34 35 35 35 35 35 35 35 36 36 36 36 36 37 37 37 37 37 37 37 36 36 35 34 33 32 32 32 32
31 31 32 33 33 33 32 31 31 31 32 33 34 35 35 35 35 35 35 36 36 36 36 36 36 37 37 36 36 37 36 36 36 35 35 35 36 36 36 35 34 34
31 31 32 33 33 32 32 31 31 31 33 34 35 35 35 34 34 35 35 36 36 36 36 36 36 36 36 36 36 35 33 33 34 35 36 36 38 38 38 37 36 36
31 32 32 33 32 32 31 31 31 32 34 35 35 35 34 34 34 35 36 35 35 36 36 36 36 35 35 35 35 33 31 31 33 35 36 37 38 38 37 36 35 35
31 32 32 32 32 31 31 31 32 34 34 35 34 33 33 33 34 35 35 35 35 35 36 36 36 35 34 35 35 33 31 30 32 34 35 37 37 36 35 34 34 34
31 32 32 32 31 31 32 32 33 34 34 33 33 32 32 33 34 34 34 34 34 35 36 37 37 35 34 34 34 33 31 30 31 33 34 36 36 36 36 35 35 37
31 32 32 32 32 32 33 33 33 33 33 32 31 32 32 33 33 33 33 33 34 34 36 37 37 35 33 33 33 32 31 30 31 33 34 36 37 37 38 38 39 39
31 32 32 32 32 33 33 33 32 32 31 31 31 32 32 32 33 33 33 33 34 35 36 38 38 35 33 33 33 32 31 31 32 34 35 36 38 39 39 39 39 39
30 31 32 32 32 32 32 31 30 30 30 30 31 32 32 32 32 32 33 33 34 35 36 38 38 36 34 33 33 32 31 31 32 33 34 35 36 36 37 37 37 38
30 31 32 32 31 31 30 29 29 29 29 29 30 32 32 32 32 33 33 34 34 35 36 37 38 36 34 33 32 31 30 30 31 32 34 34 35 36 37 37 36 35
31 31 31 31 30 29 28 28 28 29 29 29 30 31 32 32 32 33 34 34 34 35 36 37 38 37 34 33 32 31 30 29 30 32 34 34 34 35 35 34 33 32
30 30 30 29 29 28 28 28 28 28 29 29 30 30 31 33 33 34 35 35 35 35 35 36 37 37 34 32 31 30 29 27 28 30 31 32 32 32 33 33 33 31
Wind_Direction
274 275 277 279 282 285 288 290 293 295 298 302 304 306 306 305 303 300 299 298 298 298 298 298 298 297 296 294 291 289 288 288 290 292 293 291 289 287 284 281 278 279
272 273 274 276 279 282 285 287 290 293 296 300 302 304 304 302 300 298 298 297 296 297 297 297 297 296 294 292 290 288 287 288 290 291 292 289 287 284 282 280 279 280
269 270 272 274 278 281 283 285 287 291 295 298 300 302 301 299 298 297 296 296 296 297 297 296 295 294 293 290 288 287 288 289 290 291 290 287 284 282 281 281 281 281
268 269 271 273 276 279 281 282 285 289 293 296 299 299 298 297 296 295 295 295 295 296 296 295 294 293 291 289 287 287 288 289 290 291 290 285 282 282 282 283 284 283
266 267 269 271 274 276 278 280 283 287 291 295 297 296 295 294 293 293 294 294 294 294 294 294 293 292 291 289 288 287 288 289 290 291 288 284 282 282 283 285 285 286
264 265 267 270 272 274 276 279 283 287 291 295 295 293 292 291 291 292 293 293 293 292 292 292 292 291 290 289 288 287 288 289 290 290 286 282 281 282 284 286 287 288
264 265 267 269 271 273 275 278 282 287 292 294 292 290 290 289 290 291 291 291 291 291 291 292 291 291 290 289 288 288 288 289 289 288 284 281 281 282 284 286 287 289
264 265 266 268 270 272 274 278 282 288 292 291 289 288 288 288 289 289 290 290 290 290 290 291 291 290 289 288 287 287 288 288 288 287 283 281 280 282 284 286 288 289
263 264 265 267 268 270 274 278 283 288 289 288 286 286 286 286 287 288 288 288 289 289 290 290 290 290 288 287 286 286 287 288 287 285 282 281 281 282 284 286 288 289
261 263 264 266 267 270 274 279 284 287 286 285 284 284 283 284 285 286 287 288 288 289 290 290 290 288 287 286 285 285 286 287 287 284 281 281 281 282 284 286 287 287
261 263 264 265 267 271 276 281 285 285 284 283 282 282 282 283 284 285 286 287 288 289 289 289 288 287 286 285 284 285 286 287 286 283 282 282 282 283 284 286 287 286
261 263 264 266 269 274 279 283 284 283 282 282 281 281 281 281 283 285 286 287 287 288 288 288 287 286 285 284 284 284 286 286 285 283 282 282 282 284 286 286 285 283
262 263 265 267 271 276 281 283 283 282 281 282 281 280 280 282 285 286 287 287 288 288 288 287 286 285 284 284 283 284 285 285 284 283 282 283 284 286 286 284 283 281
264 264 265 269 274 278 282 283 282 282 282 281 280 280 281 283 285 287 287 287 288 288 287 286 285 284 284 284 283 284 283 283 283 283 284 286 286 286 284 282 280 280
264 265 267 271 276 280 282 282 282 282 282 280 280 281 282 284 285 286 287 287 287 287 286 285 285 284 284 285 284 284 284 284 285 286 287 288 287 285 283 280 279 278
264 266 269 274 278 282 283 282 282 282 281 281 281 281 282 284 285 285 286 286 287 286 286 285 284 284 285 285 285 285 287 288 289 289 289 289 288 287 286 284 282 280
265 268 272 277 281 283 283 283 283 282 281 281 281 282 283 284 285 285 285 286 286 286 286 285 285 286 286 286 285 286 287 287 287 286 286 285 284 285 285 285 285 284
267 271 275 279 283 284 284 284 283 282 281 281 281 282 283 283 283 284 284 285 286 286 286 286 287 287 287 286 286 285 283 282 281 281 280 279 279 280 281 281 281 281
270 274 278 283 285 285 284 283 282 281 281 282 282 283 282 282 282 282 283 285 286 287 288 288 288 288 287 287 286 285 282 278 278 278 278 278 278 278 278 279 278 278
273 277 282 286 286 284 283 281 281 282 282 282 283 283 282 281 282 282 284 286 287 288 289 288 289 289 289 289 288 286 284 281 280 279 277 277 276 275 274 274 274 274
278 282 285 285 284 282 281 281 281 282 282 283 283 282 281 282 283 284 286 287 288 289 289 289 290 292 292 291 289 287 286 283 280 277 276 275 274 273 272 272 272 273
281 284 283 282 281 280 280 281 282 282 283 283 282 282 282 283 285 286 287 289 289 290 290 291 292 294 293 291 290 288 286 283 279 276 274 273 272 272 272 272 272 273
282 281 280 280 280 280 281 282 283 283 283 283 282 283 284 285 287 288 288 289 290 291 292 293 294 295 295 293 291 290 288 285 281 279 277 276 275 275 274 273 274 274
278 278 279 280 281 282 283 284 284 284 284 283 284 285 286 288 289 289 290 291 292 293 294 294 295 296 296 295 293 291 288 283 279 277 275 274 273 273 274 275 276 277
278 279 281 283 283 284 284 284 284 284 284 285 285 286 288 289 290 290 292 293 294 294 294 295 295 297 297 295 293 290 287 282 279 277 276 276 276 277 278 278 277 277
281 283 284 285 285 285 285 284 285 285 286 286 287 288 289 290 291 292 294 295 295 296 296 296 296 297 297 296 293 290 286 280 276 274 274 276 277 277 277 277 278 279